GW4718 Weather Reports


time (UTC)temp
F
wind
direction
speed
knots
gust
knots
rain 1hr
in
rain 24hr
in
rain mn
in
humidity
%
barometer
mb
20260901061336 66 76 0.9 0.9 0.00 0.00 0.00 99 1023.5
20260901060832 66 101 0.0 0.0 0.00 0.00 0.00 98 1023.7
20260901060327 66 110 0.0 0.9 0.00 0.00 0.00 98 1024.0
20260901055826 66 108 0.0 0.9 0.00 0.00 0.00 98 1024.1
20260901055323 66 111 0.0 0.0 0.00 0.00 0.00 97 1024.2
20260901054820 67 262 0.0 2.6 0.00 0.00 0.00 97 1024.2
20260901054316 67 257 1.7 1.7 0.00 0.00 0.00 97 1024.1
20260901053812 67 229 0.0 1.7 0.00 0.00 0.00 97 1024.2
20260901053307 67 251 0.9 1.7 0.00 0.00 0.00 97 1024.2
20260901052757 67 236 0.0 1.7 0.00 0.00 0.00 97 1024.1
20260901052253 67 213 0.9 1.7 0.00 0.00 0.00 97 1024.2
20260901051751 67 249 0.9 2.6 0.00 0.00 0.00 96 1024.2
20260901051246 67 177 2.6 5.2 0.00 0.00 0.00 96 1024.3
20260901050736 67 246 0.9 1.7 0.00 0.00 0.00 96 1024.2
20260901050231 67 148 0.0 1.7 0.00 0.00 0.00 96 1024.2
20260901045726 67 234 0.0 1.7 0.00 0.00 0.00 96 1024.2
20260901045221 67 235 0.9 1.7 0.00 0.00 0.00 96 1024.2
20260901044716 67 222 2.6 2.6 0.00 0.00 0.00 96 1024.2
20260901044214 68 230 0.9 2.6 0.00 0.00 0.00 95 1024.2
20260901043708 68 251 0.9 2.6 0.00 0.00 0.00 95 1024.3
20260901043203 68 238 1.7 2.6 0.00 0.00 0.00 95 1024.2
20260901042702 68 186 3.5 3.5 0.00 0.00 0.00 95 1024.4
20260901042157 69 229 0.0 0.9 0.00 0.00 0.00 94 1024.4
20260901041653 69 228 3.5 5.2 0.00 0.00 0.00 93 1024.4
20260901041152 69 175 0.9 2.6 0.00 0.00 0.00 93 1024.4
20260901040648 70 192 2.6 3.5 0.00 0.00 0.00 92 1024.4
20260901040141 70 212 0.9 5.2 0.00 0.00 0.00 92 1024.5
20260901035640 69 184 1.7 3.5 0.00 0.00 0.00 93 1024.5
20260901035138 69 248 1.7 2.6 0.00 0.00 0.00 94 1024.5
20260901034633 69 239 1.7 2.6 0.00 0.00 0.00 94 1024.6
20260901034133 69 249 1.7 1.7 0.00 0.00 0.00 94 1024.5
20260901033632 69 247 1.7 2.6 0.00 0.00 0.00 94 1024.5
20260901033132 69 220 1.7 1.7 0.00 0.00 0.00 95 1024.7
20260901032630 69 191 0.9 2.6 0.00 0.00 0.00 95 1024.7
20260901032125 69 191 0.9 2.6 0.00 0.00 0.00 96 1024.6
20260901031621 69 38 0.0 0.9 0.00 0.00 0.00 96 1024.6
20260901031117 68 142 1.7 1.7 0.00 0.00 0.00 97 1024.6
20260901030616 68 134 0.0 0.9 0.00 0.00 0.00 97 1024.5
20260901030111 68 338 0.0 0.9 0.00 0.00 0.00 97 1024.5
20260901025606 68 270 0.0 0.9 0.00 0.00 0.00 97 1024.7
20260901025100 68 100 0.0 0.0 0.00 0.00 0.00 97 1024.6
20260901024555 68 346 0.0 0.0 0.00 0.00 0.00 97 1024.5
20260901024054 68 238 0.0 1.7 0.00 0.00 0.00 96 1024.7
20260901023553 68 292 0.9 1.7 0.00 0.00 0.00 97 1024.8
20260901023048 68 260 0.0 0.9 0.00 0.00 0.00 97 1024.6
20260901022543 68 273 0.9 1.7 0.00 0.00 0.00 98 1024.7
20260901022039 68 233 0.9 1.7 0.00 0.00 0.00 98 1024.8
20260901021534 68 227 0.0 0.0 0.00 0.00 0.00 98 1024.7
20260901021030 68 182 0.0 0.0 0.00 0.00 0.00 98 1024.6
20260901020525 68 180 0.0 0.0 0.00 0.00 0.00 98 1024.7
20260901020020 68 173 0.0 0.0 0.00 0.00 0.00 98 1024.7
20260901015516 68 146 0.0 0.0 0.00 0.00 0.00 98 1024.6
20260901015015 68 139 0.0 0.0 0.00 0.00 0.00 97 1024.8
20260901014511 68 105 0.0 0.0 0.00 0.00 0.00 97 1024.7
20260901014007 69 105 0.0 0.0 0.00 0.00 0.00 97 1024.8
20260901013502 69 111 0.0 0.0 0.00 0.00 0.00 97 1024.5
20260901012958 69 111 0.0 0.0 0.00 0.00 0.00 97 1024.2
20260901012457 69 121 0.0 0.0 0.00 0.00 0.00 97 1024.2
20260901011953 69 113 0.0 0.0 0.00 0.00 0.00 96 1024.3
20260901011449 69 113 0.0 0.0 0.00 0.00 0.00 96 1024.0
20260901010946 69 113 0.0 0.0 0.00 0.00 0.00 95 1024.0
20260901010442 70 113 0.0 0.0 0.00 0.00 0.00 95 1023.7
20260901005941 70 121 0.0 0.0 0.00 0.00 0.00 95 1023.6
20260901005436 70 117 0.0 0.0 0.00 0.00 0.00 95 1023.5
20260901004931 70 83 0.9 0.9 0.00 0.00 0.00 94 1023.7
20260901004431 71 219 0.0 0.9 0.00 0.00 0.00 93 1023.5
20260901003925 71 100 0.9 1.7 0.00 0.00 0.00 93 1023.5
20260901003420 71 270 0.0 0.0 0.00 0.00 0.00 93 1023.5
20260901002918 72 98 0.9 1.7 0.00 0.00 0.00 91 1023.3
20260901002412 72 59 0.0 0.0 0.00 0.00 0.00 92 1023.5
20260901001907 72 81 0.0 0.0 0.00 0.00 0.00 92 1023.4
20260901001403 72 269 0.0 1.7 0.00 0.00 0.00 91 1023.4
20260901000858 73 128 0.0 0.0 0.00 0.00 0.00 92 1023.2
20260901000353 73 71 0.9 1.7 0.00 0.00 0.00 88 1023.1
20260831235851 73 147 0.0 0.0 0.00 0.00 0.00 92 1023.3
20260831235348 73 208 0.0 0.0 0.00 0.00 0.00 92 1023.4
20260831234842 73 102 0.0 0.0 0.00 0.00 0.00 91 1023.4
20260831234337 73 105 0.9 1.7 0.00 0.00 0.00 89 1023.1
20260831233832 73 78 0.9 0.9 0.00 0.00 0.00 90 1023.4
20260831233327 74 75 0.0 0.0 0.00 0.00 0.00 89 1023.3
20260831232822 74 220 0.0 0.9 0.00 0.00 0.00 87 1023.5
20260831232319 74 136 0.0 0.9 0.00 0.00 0.00 87 1023.5
20260831231815 75 243 0.9 0.9 0.00 0.00 0.00 86 1023.4
20260831231311 75 99 0.0 0.9 0.00 0.00 0.00 84 1023.5
20260831230806 76 175 0.0 1.7 0.00 0.00 0.00 83 1023.4
20260831230301 76 101 1.7 2.6 0.00 0.00 0.00 83 1023.5
20260831225800 77 114 1.7 1.7 0.00 0.00 0.00 84 1023.5
20260831225255 77 79 2.6 2.6 0.00 0.00 0.00 75 1023.3
20260831224750 77 127 0.0 0.0 0.00 0.00 0.00 82 1023.4
20260831224246 78 109 0.0 0.0 0.00 0.00 0.00 78 1023.5
20260831223740 79 45 0.9 1.7 0.00 0.00 0.00 70 1023.4
20260831223237 78 158 0.0 3.5 0.00 0.00 0.00 71 1023.4
20260831222733 79 116 2.6 2.6 0.00 0.00 0.00 72 1023.5
20260831222228 80 104 0.9 0.9 0.00 0.00 0.00 76 1023.6
20260831221724 80 115 0.0 0.9 0.00 0.00 0.00 69 1023.3
20260831221219 82 132 0.0 0.9 0.00 0.00 0.00 72 1023.4
20260831220714 83 156 0.0 1.7 0.00 0.00 0.00 63 1023.5
20260831220209 84 132 0.9 3.5 0.00 0.00 0.00 59 1023.3
20260831215704 87 254 1.7 2.6 0.00 0.00 0.00 60 1023.4
20260831215200 87 271 0.9 0.9 0.00 0.00 0.00 55 1023.5
20260831214657 87 281 0.0 0.0 0.00 0.00 0.00 52 1023.5
20260831214153 86 247 0.0 0.9 0.00 0.00 0.00 58 1023.5
20260831213648 86 159 2.6 2.6 0.00 0.00 0.00 58 1023.7
20260831213143 86 175 2.6 3.5 0.00 0.00 0.00 57 1023.9
20260831212640 86 191 2.6 5.2 0.00 0.00 0.00 61 1024.0
20260831212137 85 178 3.5 3.5 0.00 0.00 0.00 61 1023.5
20260831211635 87 280 1.7 2.6 0.00 0.00 0.00 58 1023.7
20260831211130 87 162 2.6 3.5 0.00 0.00 0.00 54 1023.5
20260831210625 86 191 0.9 1.7 0.00 0.00 0.00 56 1023.7
20260831210121 86 188 1.7 2.6 0.00 0.00 0.00 58 1023.9
20260831205620 84 271 0.9 1.7 0.00 0.00 0.00 59 1023.7
20260831205116 83 99 2.6 2.6 0.00 0.00 0.00 61 1023.9
20260831204616 84 83 2.6 3.5 0.00 0.00 0.00 60 1024.0
20260831204114 84 295 3.5 5.2 0.00 0.00 0.00 63 1023.7
20260831203609 84 230 1.7 2.6 0.00 0.00 0.00 63 1024.1
20260831203108 82 79 1.7 2.6 0.00 0.00 0.00 68 1024.1
20260831202607 82 165 1.7 3.5 0.00 0.00 0.00 65 1024.1
20260831202102 83 172 2.6 2.6 0.00 0.00 0.00 62 1024.1
20260831201600 83 171 0.9 0.9 0.00 0.00 0.00 63 1024.2
20260831201056 84 51 0.9 1.7 0.00 0.00 0.00 68 1024.0
20260831200551 82 40 0.9 2.6 0.00 0.00 0.00 68 1024.3
20260831200046 81 54 3.5 3.5 0.00 0.00 0.00 72 1024.0
20260831195542 82 48 0.9 1.7 0.00 0.00 0.00 73 1024.0
20260831195036 81 108 0.0 0.0 0.00 0.00 0.00 66 1024.0
20260831194526 81 97 1.7 1.7 0.00 0.00 0.00 69 1024.0
20260831194026 81 66 0.9 1.7 0.00 0.00 0.00 72 1024.2
20260831193522 82 52 0.9 2.6 0.00 0.00 0.00 69 1024.5
20260831193016 82 219 1.7 1.7 0.00 0.00 0.00 66 1024.5
20260831192506 81 206 1.7 2.6 0.00 0.00 0.00 73 1024.6
20260831192001 81 195 0.9 0.9 0.00 0.00 0.00 71 1024.5
20260831191457 81 217 1.7 2.6 0.00 0.00 0.00 73 1024.5
20260831190953 81 187 0.9 2.6 0.00 0.00 0.00 70 1024.6
20260831190448 81 154 0.0 0.9 0.00 0.00 0.00 70 1024.4
20260831185946 81 140 0.0 1.7 0.00 0.00 0.00 70 1024.6
20260831185443 81 128 0.9 1.7 0.00 0.00 0.00 70 1024.7
20260831184942 81 178 1.7 2.6 0.00 0.00 0.00 72 1024.7
20260831184437 81 103 0.9 2.6 0.00 0.00 0.00 72 1024.7
20260831183932 82 233 0.9 1.7 0.00 0.00 0.00 71 1024.7
20260831183432 81 163 0.0 1.7 0.00 0.00 0.00 72 1024.7
20260831182931 80 295 0.0 1.7 0.00 0.00 0.00 72 1024.7
20260831182426 79 336 0.0 0.9 0.00 0.00 0.00 74 1024.9
20260831181922 79 163 0.0 0.0 0.00 0.00 0.00 78 1024.7
20260831181417 78 112 0.9 6.1 0.00 0.00 0.00 73 1024.7
20260831180912 78 146 0.9 0.9 0.00 0.00 0.00 80 1025.0
20260831180406 78 52 0.9 1.7 0.00 0.00 0.00 81 1024.9
20260831175905 78 109 1.7 2.6 0.00 0.00 0.00 81 1024.9
20260831175402 78 95 1.7 2.6 0.00 0.00 0.00 81 1024.8
20260831174858 78 107 0.0 1.7 0.00 0.00 0.00 80 1025.2
20260831174353 78 86 0.0 0.9 0.00 0.00 0.00 81 1025.0
20260831173852 77 110 0.9 1.7 0.00 0.00 0.00 83 1025.1
20260831173346 78 56 1.7 2.6 0.00 0.00 0.00 78 1025.0
20260831172841 78 55 0.0 1.7 0.00 0.00 0.00 78 1024.9
20260831172337 77 118 3.5 3.5 0.00 0.00 0.00 80 1024.9
20260831171836 78 284 0.0 0.0 0.00 0.00 0.00 83 1025.2
20260831171333 78 50 0.0 0.0 0.00 0.00 0.00 83 1025.0
20260831170830 78 5 0.0 0.9 0.00 0.00 0.00 85 1024.9
20260831170326 78 6 0.0 0.0 0.00 0.00 0.00 82 1024.8
20260831165822 78 14 0.0 0.0 0.00 0.00 0.00 81 1024.9
20260831165318 78 325 0.9 0.9 0.00 0.00 0.00 81 1025.0
20260831164814 78 73 0.0 0.9 0.00 0.00 0.00 83 1025.0
20260831164310 78 20 0.0 1.7 0.00 0.00 0.00 83 1025.1
20260831163805 78 246 0.0 1.7 0.00 0.00 0.00 83 1025.0
20260831163301 78 290 1.7 1.7 0.00 0.00 0.00 82 1025.2
20260831162759 77 33 0.0 0.0 0.00 0.00 0.00 82 1025.2
20260831162254 76 63 1.7 1.7 0.00 0.00 0.00 85 1025.3
20260831161748 77 63 0.9 1.7 0.00 0.00 0.00 83 1025.4
20260831161244 77 267 0.9 1.7 0.00 0.00 0.00 82 1025.2
20260831160744 76 149 0.0 0.0 0.00 0.00 0.00 84 1025.1
20260831160233 76 130 0.0 0.0 0.00 0.00 0.00 83 1025.4
20260831155733 77 90 1.7 1.7 0.00 0.00 0.00 83 1025.2
20260831155229 77 240 0.0 0.9 0.00 0.00 0.00 83 1025.3
20260831154724 77 236 0.0 0.0 0.00 0.00 0.00 84 1025.2
20260831154221 76 74 0.0 0.9 0.00 0.00 0.00 82 1025.1
20260831153719 76 162 0.0 0.9 0.00 0.00 0.00 83 1025.2
20260831153215 75 289 0.0 0.0 0.00 0.00 0.00 84 1025.2
20260831152711 74 247 0.0 0.9 0.00 0.00 0.00 84 1025.3
20260831152207 74 292 0.0 0.9 0.00 0.00 0.00 86 1025.5
20260831151706 74 196 0.0 0.0 0.00 0.00 0.00 85 1025.2
20260831151201 74 202 0.0 0.9 0.00 0.00 0.00 85 1025.8
20260831150656 74 250 0.9 0.9 0.00 0.00 0.00 86 1025.7
20260831150151 74 273 0.0 0.9 0.00 0.00 0.00 85 1025.7
20260831145650 74 125 0.0 0.0 0.00 0.00 0.00 86 1025.7
20260831145147 73 199 0.0 1.7 0.00 0.00 0.00 87 1025.7
20260831144642 74 283 0.0 0.9 0.00 0.00 0.00 85 1025.4
20260831144138 74 196 0.0 0.0 0.00 0.00 0.00 84 1025.5
20260831143637 73 133 0.0 0.0 0.00 0.00 0.00 84 1025.7
20260831143133 73 109 0.0 0.0 0.00 0.00 0.00 84 1025.4
20260831142630 73 154 0.0 0.0 0.00 0.00 0.00 86 1025.3
20260831142129 73 83 0.0 0.9 0.00 0.00 0.00 86 1025.3
20260831141628 72 55 0.9 1.7 0.00 0.00 0.00 87 1025.2
20260831141124 72 70 0.0 0.0 0.00 0.00 0.00 85 1025.5
20260831140623 72 212 0.0 0.9 0.00 0.00 0.00 86 1025.3
20260831140118 71 210 0.0 1.7 0.00 0.00 0.00 87 1025.3
20260831135615 71 197 0.0 1.7 0.00 0.00 0.00 88 1025.7
20260831135111 71 280 0.0 0.9 0.00 0.00 0.00 87 1025.4
20260831134607 71 237 0.0 2.6 0.00 0.00 0.00 89 1025.8
20260831134102 70 221 0.9 1.7 0.00 0.00 0.00 89 1025.5
20260831133601 70 220 0.9 2.6 0.00 0.00 0.00 88 1025.8
20260831133056 70 247 2.6 2.6 0.00 0.00 0.00 89 1025.8
20260831132553 70 244 1.7 2.6 0.00 0.00 0.00 90 1025.5
20260831132052 69 217 0.0 1.7 0.00 0.00 0.00 90 1025.7
20260831131546 69 53 0.0 1.7 0.00 0.00 0.00 92 1025.4
20260831131043 69 134 0.0 1.7 0.00 0.00 0.00 91 1025.4
20260831130538 69 246 1.7 2.6 0.00 0.00 0.00 92 1025.4
20260831130033 68 257 1.7 2.6 0.00 0.00 0.00 92 1025.7
20260831125531 68 183 0.0 0.9 0.00 0.00 0.00 93 1025.7
20260831125027 68 181 0.0 0.0 0.00 0.00 0.00 93 1025.5
20260831124524 68 221 0.9 1.7 0.00 0.00 0.00 92 1025.8
20260831124020 67 196 0.9 2.6 0.00 0.00 0.00 95 1025.5
20260831123518 67 230 0.9 3.5 0.00 0.00 0.00 96 1025.5
20260831123013 66 273 0.9 2.6 0.00 0.00 0.00 96 1025.8
20260831122508 65 264 1.7 1.7 0.00 0.00 0.00 98 1025.7
20260831122003 65 157 0.0 1.7 0.00 0.00 0.00 99 1025.8
20260831121458 64 72 0.0 0.0 0.00 0.00 0.00 99 1025.4
20260831120954 63 119 0.0 0.0 0.00 0.00 0.00 99 1025.5
20260831120453 63 186 0.9 0.9 0.00 0.00 0.00 99 1025.7
20260831115949 62 235 0.0 1.7 0.00 0.00 0.00 99 1025.8
20260831115445 62 231 0.0 1.7 0.00 0.00 0.00 99 1025.5
20260831114945 62 220 1.7 2.6 0.00 0.00 0.00 99 1025.5
20260831114443 62 226 1.7 2.6 0.00 0.00 0.00 99 1025.4
20260831113939 62 127 0.0 0.0 0.00 0.00 0.00 99 1025.7
20260831113438 61 104 0.0 0.0 0.00 0.00 0.00 99 1025.5
20260831112934 61 118 0.0 0.0 0.00 0.00 0.00 99 1025.4
20260831112434 61 84 0.0 0.0 0.00 0.00 0.00 99 1025.4
20260831111929 61 81 0.0 0.0 0.00 0.00 0.00 99 1025.5
20260831111425 61 187 0.0 0.0 0.00 0.00 0.00 99 1025.4
20260831110921 61 81 0.0 0.0 0.00 0.00 0.00 99 1025.3
20260831110415 61 27 0.0 0.0 0.00 0.00 0.00 99 1025.2
20260831105914 61 26 0.0 0.0 0.00 0.00 0.00 99 1025.2
20260831105409 61 26 0.0 0.0 0.00 0.00 0.00 99 1025.3
20260831104904 61 26 0.0 0.0 0.00 0.00 0.00 99 1025.3
20260831104400 61 26 0.0 0.0 0.00 0.00 0.00 99 1025.2
20260831103855 61 26 0.0 0.0 0.00 0.00 0.00 99 1025.1
20260831103351 61 26 0.0 0.0 0.00 0.00 0.00 99 1025.1
20260831102846 61 26 0.0 0.0 0.00 0.00 0.00 99 1025.2
20260831102341 61 26 0.0 0.0 0.00 0.00 0.00 99 1025.0
20260831101837 61 358 0.0 0.0 0.00 0.00 0.00 99 1025.0
20260831101332 62 47 0.0 0.0 0.00 0.00 0.00 99 1024.9
20260831100829 62 47 0.0 0.0 0.00 0.00 0.00 99 1024.8
20260831100324 62 47 0.0 0.0 0.00 0.00 0.00 99 1024.9
20260831095824 61 43 0.0 0.0 0.00 0.00 0.00 99 1024.9
20260831095318 62 43 0.0 0.0 0.00 0.00 0.00 99 1024.9
20260831094813 61 249 0.0 0.9 0.00 0.00 0.00 99 1025.0
20260831094308 61 187 0.0 0.0 0.00 0.00 0.00 99 1024.8
20260831093804 61 182 0.0 0.0 0.00 0.00 0.00 99 1025.0
20260831093304 61 207 0.0 0.0 0.00 0.00 0.00 99 1024.7
20260831092801 62 147 0.0 0.0 0.00 0.00 0.00 99 1024.9
20260831092256 62 147 0.0 0.0 0.00 0.00 0.00 99 1024.9
20260831091755 62 113 0.0 0.0 0.00 0.00 0.00 99 1024.7
20260831091251 62 113 0.0 0.0 0.00 0.00 0.00 99 1024.8
20260831090746 63 114 0.0 0.0 0.00 0.00 0.00 99 1024.7
20260831090242 62 114 0.0 0.0 0.00 0.00 0.00 99 1024.8
20260831085738 63 113 0.0 0.0 0.00 0.00 0.00 99 1024.7
20260831085233 63 113 0.0 0.0 0.00 0.00 0.00 99 1024.8
20260831084728 63 115 0.0 0.0 0.00 0.00 0.00 99 1024.7
20260831084224 63 116 0.0 0.0 0.00 0.00 0.00 99 1024.8
20260831083720 63 110 0.0 0.0 0.00 0.00 0.00 99 1024.7
20260831083216 63 110 0.0 0.0 0.00 0.00 0.00 99 1024.5
20260831082714 63 88 0.0 0.0 0.00 0.00 0.00 99 1024.7
20260831082204 63 91 0.0 0.0 0.00 0.00 0.00 99 1024.5
20260831081659 64 100 0.0 0.0 0.00 0.00 0.00 99 1024.4
20260831081154 64 107 0.0 0.0 0.00 0.00 0.00 99 1024.4
20260831080650 64 112 0.0 0.0 0.00 0.00 0.00 99 1024.5
20260831080150 64 341 0.0 0.9 0.00 0.00 0.00 99 1024.4
20260831075646 64 348 0.9 1.7 0.00 0.00 0.00 98 1024.3
20260831075141 64 175 0.0 3.5 0.00 0.00 0.00 98 1024.3
20260831074640 64 126 0.0 1.7 0.00 0.00 0.00 99 1024.4
20260831074135 64 229 0.9 1.7 0.00 0.00 0.00 98 1024.4
20260831073630 64 176 0.0 0.9 0.00 0.00 0.00 98 1024.3
20260831073129 64 175 0.9 1.7 0.00 0.00 0.00 99 1024.0
20260831072625 64 113 0.0 0.0 0.00 0.00 0.00 98 1024.1
20260831072122 64 109 0.0 0.9 0.00 0.00 0.00 98 1024.1
20260831071620 64 204 0.9 1.7 0.00 0.00 0.00 98 1024.2
20260831071115 64 186 0.9 1.7 0.00 0.00 0.00 98 1024.3
20260831070615 65 223 0.0 0.9 0.00 0.00 0.00 98 1024.4
20260831070109 65 229 0.0 2.6 0.00 0.00 0.00 97 1024.3
20260831065608 65 253 1.7 1.7 0.00 0.00 0.00 97 1024.2
20260831065102 65 220 1.7 3.5 0.00 0.00 0.00 97 1024.5
20260831064557 65 216 1.7 2.6 0.00 0.00 0.00 96 1024.4
20260831064052 65 160 1.7 3.5 0.00 0.00 0.00 97 1024.5
20260831063548 65 227 2.6 2.6 0.00 0.00 0.00 97 1024.5
20260831063048 65 235 0.0 1.7 0.00 0.00 0.00 97 1024.3
20260831062543 65 248 0.0 0.0 0.00 0.00 0.00 97 1024.4
20260831062042 65 289 0.0 0.9 0.00 0.00 0.00 97 1024.5